When you browse on this site, cookies collect data to enhance your experience and personalize the content and advertising you see.
Visit our Privacy Policy to learn more. By continuing to use the site, you agree to this use of cookies and data.
  • In France
  • List of Countries
  • For 7 days
  • Water Temperature
  • Weather Map
  • Weather Widgets
  • user-avatar
    Login

    Hourly Weather Porto Velho

    Today, 21 August, Wednesday

    Time Temperature Precipitation Wind Pressure Humidity
    00:00 +23°C° 0 mm 0 mps 753 mmHg 86%
    01:00 +23°C° 0 mm 0 mps 753 mmHg 88%
    02:00 +24°C° 0 mm 1 mps 752 mmHg 90%
    03:00 +24°C° 0 mm 1 mps 752 mmHg 90%
    04:00 +24°C° 0 mm 1 mps 752 mmHg 90%
    05:00 +24°C° 0 mm 1 mps 752 mmHg 90%
    06:00 +25°C° 0 mm 1 mps 753 mmHg 84%
    07:00 +27°C° 0 mm 1 mps 753 mmHg 78%
    08:00 +28°C° 0 mm 1 mps 754 mmHg 72%
    09:00 +31°C° 0 mm 1 mps 754 mmHg 60%
    10:00 +34°C° 0 mm 1 mps 754 mmHg 48%
    11:00 +37°C° 0 mm 1 mps 754 mmHg 36%
    12:00 +39°C° 0 mm 1 mps 753 mmHg 33%
    13:00 +40°C° 0 mm 1 mps 752 mmHg 29%
    14:00 +41°C° 0 mm 1 mps 751 mmHg 26%
    15:00 +40°C° 0 mm 1 mps 751 mmHg 28%
    16:00 +37°C° 0 mm 1 mps 750 mmHg 30%
    17:00 +36°C° 0 mm 1 mps 750 mmHg 33%
    18:00 +34°C° 0 mm 1 mps 750 mmHg 37%
    19:00 +32°C° 0 mm 1 mps 750 mmHg 41%
    20:00 +28°C° 0 mm 0 mps 751 mmHg 46%
    21:00 +27°C° 0 mm 0 mps 751 mmHg 49%
    22:00 +27°C° 0 mm 0 mps 751 mmHg 52%
    23:00 +26°C° 0 mm 0 mps 751 mmHg 56%

    Tomorrow, 22 August, Thursday

    Time Temperature Precipitation Wind Pressure Humidity
    00:00 +25°C° 0 mm 0 mps 751 mmHg 59%
    01:00 +27°C° 0 mm 1 mps 751 mmHg 61%
    02:00 +26°C° 0 mm 1 mps 751 mmHg 64%
    03:00 +26°C° 0 mm 1 mps 751 mmHg 66%
    04:00 +25°C° 0 mm 1 mps 751 mmHg 68%
    05:00 +25°C° 0 mm 1 mps 751 mmHg 70%
    06:00 +26°C° 0 mm 1 mps 752 mmHg 66%
    07:00 +27°C° 0 mm 1 mps 752 mmHg 62%
    08:00 +29°C° 0 mm 1 mps 753 mmHg 57%
    09:00 +32°C° 0 mm 1 mps 752 mmHg 48%
    10:00 +36°C° 0 mm 1 mps 752 mmHg 38%
    11:00 +40°C° 0 mm 1 mps 752 mmHg 28%
    12:00 +42°C° 0 mm 1 mps 751 mmHg 24%
    13:00 +43°C° 0 mm 1 mps 750 mmHg 20%
    14:00 +45°C° 0 mm 1 mps 750 mmHg 17%
    15:00 +43°C° 0 mm 1 mps 749 mmHg 19%
    16:00 +41°C° 0 mm 1 mps 749 mmHg 22%
    17:00 +39°C° 0 mm 1 mps 749 mmHg 25%
    18:00 +34°C° 0 mm 0 mps 749 mmHg 29%
    19:00 +31°C° 0 mm 0 mps 750 mmHg 33%
    20:00 +29°C° 0 mm 0 mps 750 mmHg 38%
    21:00 +28°C° 0 mm 0 mps 750 mmHg 40%
    22:00 +27°C° 0 mm 0 mps 751 mmHg 42%
    23:00 +26°C° 0 mm 0 mps 751 mmHg 44%

    Day after tomorrow, 23 August, Friday

    Time Temperature Precipitation Wind Pressure Humidity
    00:00 +26°C° 0 mm 0 mps 751 mmHg 45%
    01:00 +25°C° 0 mm 0 mps 750 mmHg 47%
    02:00 +25°C° 0 mm 0 mps 750 mmHg 48%
    03:00 +25°C° 0 mm 0 mps 750 mmHg 48%
    04:00 +24°C° 0 mm 0 mps 750 mmHg 49%
    05:00 +24°C° 0 mm 0 mps 751 mmHg 49%
    06:00 +26°C° 0 mm 0 mps 751 mmHg 47%
    07:00 +27°C° 0 mm 0 mps 752 mmHg 45%
    08:00 +28°C° 0 mm 0 mps 752 mmHg 43%
    09:00 +31°C° 0 mm 0 mps 752 mmHg 37%
    10:00 +34°C° 0 mm 0 mps 752 mmHg 31%
    11:00 +37°C° 0 mm 0 mps 752 mmHg 25%
    12:00 +41°C° 0 mm 1 mps 752 mmHg 22%
    13:00 +42°C° 0 mm 1 mps 751 mmHg 19%
    14:00 +44°C° 0 mm 1 mps 750 mmHg 16%
    15:00 +43°C° 0 mm 1 mps 749 mmHg 17%
    16:00 +42°C° 0 mm 1 mps 749 mmHg 17%
    17:00 +41°C° 0 mm 1 mps 748 mmHg 18%
    18:00 +37°C° 0 mm 1 mps 748 mmHg 22%
    19:00 +34°C° 0 mm 1 mps 749 mmHg 26%
    20:00 +29°C° 0 mm 0 mps 749 mmHg 30%
    21:00 +28°C° 0 mm 0 mps 749 mmHg 32%
    22:00 +28°C° 0 mm 0 mps 750 mmHg 34%
    23:00 +27°C° 0 mm 0 mps 750 mmHg 36%

    24 August, Saturday

    Time Temperature Precipitation Wind Pressure Humidity
    00:00 +26°C° 0 mm 0 mps 750 mmHg 38%
    01:00 +25°C° 0 mm 0 mps 749 mmHg 40%
    02:00 +25°C° 0 mm 0 mps 749 mmHg 41%
    03:00 +24°C° 0 mm 0 mps 749 mmHg 44%
    04:00 +23°C° 0 mm 0 mps 750 mmHg 46%
    05:00 +23°C° 0 mm 0 mps 750 mmHg 48%
    06:00 +24°C° 0 mm 0 mps 751 mmHg 48%
    07:00 +27°C° 0 mm 1 mps 751 mmHg 47%
    08:00 +29°C° 0 mm 1 mps 752 mmHg 46%
    09:00 +32°C° 0 mm 1 mps 752 mmHg 41%
    10:00 +35°C° 0 mm 1 mps 752 mmHg 36%
    11:00 +39°C° 0 mm 2 mps 752 mmHg 31%
    12:00 +40°C° 0 mm 2 mps 751 mmHg 28%
    13:00 +42°C° 0 mm 1 mps 750 mmHg 25%
    14:00 +43°C° 0 mm 1 mps 749 mmHg 21%
    15:00 +42°C° 0 mm 1 mps 748 mmHg 23%
    16:00 +41°C° 0 mm 1 mps 748 mmHg 24%
    17:00 +40°C° 0 mm 1 mps 747 mmHg 25%
    18:00 +37°C° 0 mm 1 mps 748 mmHg 30%
    19:00 +34°C° 0 mm 1 mps 748 mmHg 35%
    20:00 +32°C° 0 mm 1 mps 748 mmHg 40%
    21:00 +29°C° 0 mm 0 mps 749 mmHg 44%
    22:00 +28°C° 0 mm 0 mps 749 mmHg 47%
    23:00 +27°C° 0 mm 0 mps 749 mmHg 51%

    25 August, Sunday

    Time Temperature Precipitation Wind Pressure Humidity
    00:00 +28°C° 0 mm 1 mps 749 mmHg 53%
    01:00 +28°C° 0 mm 1 mps 749 mmHg 55%
    02:00 +28°C° 0 mm 1 mps 749 mmHg 57%
    03:00 +27°C° 0 mm 1 mps 749 mmHg 60%
    04:00 +27°C° 0 mm 1 mps 750 mmHg 63%
    05:00 +26°C° 0 mm 1 mps 750 mmHg 67%
    06:00 +27°C° 0 mm 1 mps 750 mmHg 64%
    07:00 +28°C° 0 mm 1 mps 751 mmHg 62%
    08:00 +29°C° 0 mm 1 mps 752 mmHg 60%
    09:00 +33°C° 0 mm 1 mps 752 mmHg 51%
    10:00 +36°C° 0 mm 1 mps 752 mmHg 42%
    11:00 +40°C° 0 mm 2 mps 752 mmHg 33%
    12:00 +41°C° 0 mm 1 mps 751 mmHg 30%
    13:00 +41°C° 0 mm 1 mps 750 mmHg 28%
    14:00 +42°C° 0 mm 1 mps 749 mmHg 25%
    15:00 +39°C° 0.1 mm 1 mps 748 mmHg 32%
    16:00 +37°C° 0.1 mm 2 mps 748 mmHg 39%
    17:00 +35°C° 0.1 mm 2 mps 748 mmHg 46%
    18:00 +32°C° 0.1 mm 2 mps 748 mmHg 52%
    19:00 +31°C° 0.1 mm 2 mps 749 mmHg 59%
    20:00 +29°C° 0.1 mm 2 mps 749 mmHg 66%
    21:00 +28°C° 0.4 mm 1 mps 750 mmHg 71%
    22:00 +28°C° 0.4 mm 1 mps 750 mmHg 75%
    23:00 +27°C° 0.4 mm 1 mps 750 mmHg 79%

    26 August, Monday

    Time Temperature Precipitation Wind Pressure Humidity
    00:00 +26°C° 0.1 mm 1 mps 750 mmHg 80%
    01:00 +26°C° 0.1 mm 1 mps 750 mmHg 81%
    02:00 +26°C° 0.1 mm 1 mps 750 mmHg 81%
    03:00 +26°C° 0 mm 1 mps 750 mmHg 84%
    04:00 +25°C° 0 mm 1 mps 750 mmHg 86%
    05:00 +23°C° 0 mm 0 mps 750 mmHg 88%
    06:00 +24°C° 0 mm 0 mps 751 mmHg 84%
    07:00 +25°C° 0 mm 0 mps 751 mmHg 81%
    08:00 +26°C° 0 mm 0 mps 752 mmHg 77%
    09:00 +31°C° 0 mm 1 mps 752 mmHg 63%
    10:00 +35°C° 0 mm 1 mps 752 mmHg 50%
    11:00 +40°C° 0 mm 1 mps 752 mmHg 36%
    12:00 +40°C° 0 mm 1 mps 751 mmHg 34%
    13:00 +40°C° 0 mm 1 mps 750 mmHg 33%
    14:00 +40°C° 0 mm 1 mps 749 mmHg 31%
    15:00 +36°C° 0.3 mm 1 mps 749 mmHg 40%
    16:00 +34°C° 0.3 mm 2 mps 748 mmHg 50%
    17:00 +31°C° 0.3 mm 2 mps 748 mmHg 59%
    18:00 +30°C° 0.2 mm 1 mps 749 mmHg 63%
    19:00 +29°C° 0.2 mm 1 mps 749 mmHg 67%
    20:00 +28°C° 0.2 mm 1 mps 750 mmHg 71%
    21:00 +27°C° 0.7 mm 1 mps 750 mmHg 78%
    22:00 +24°C° 0.7 mm 0 mps 751 mmHg 84%
    23:00 +23°C° 0.7 mm 0 mps 751 mmHg 91%
    Show more